Wetterdaten: aktuell Freitag, 15.12.2017 20:20
Datum Zeit Temp. A. Temp. A. min Feuchte A. Luftdruck Regen Wind Richtung Richtung Sonnenschein Solar Taupunkt Windchill Windben
15.12.2017 20:20 1,5 C 1,4 C 91 % 1000,6 hPa 0,0 l/m 0,0 km/h (0 Bft) S-SW 207 0 min 0 W/m 0,2 C 1,5 C 0,0 km/h (0 Bft)
15.12.2017 20:15 1,6 C 1,6 C 91 % 1000,6 hPa 0,0 l/m 0,0 km/h (0 Bft) S-SW 207 0 min 0 W/m 0,3 C 1,6 C 0,0 km/h (0 Bft)
15.12.2017 20:10 1,6 C 1,6 C 91 % 1000,5 hPa 0,0 l/m 0,0 km/h (0 Bft) S-SW 207 0 min 0 W/m 0,3 C 1,6 C 0,0 km/h (0 Bft)
15.12.2017 20:05 1,7 C 1,7 C 91 % 1000,5 hPa 0,0 l/m 0,0 km/h (0 Bft) S-SW 207 0 min 0 W/m 0,4 C 1,7 C 0,0 km/h (0 Bft)
15.12.2017 20:00 1,7 C 1,7 C 91 % 1000,5 hPa 0,0 l/m 0,0 km/h (0 Bft) S-SW 207 0 min 0 W/m 0,4 C 1,7 C 0,0 km/h (0 Bft)
15.12.2017 19:55 1,8 C 1,8 C 91 % 1000,5 hPa 0,0 l/m 0,0 km/h (0 Bft) S-SW 207 0 min 0 W/m 0,5 C 1,8 C 0,0 km/h (0 Bft)
15.12.2017 19:50 1,8 C 1,8 C 91 % 1000,4 hPa 0,0 l/m 0,4 km/h (0 Bft) S-SW 207 0 min 0 W/m 0,5 C 1,8 C 3,2 km/h (1 Bft)
15.12.2017 19:45 1,8 C 1,8 C 91 % 1000,3 hPa 0,0 l/m 2,0 km/h (1 Bft) S-SW 207 0 min 0 W/m 0,5 C 1,8 C 3,2 km/h (1 Bft)
15.12.2017 19:40 1,8 C 1,8 C 91 % 1000,3 hPa 0,0 l/m 2,6 km/h (1 Bft) S-SW 207 0 min 0 W/m 0,5 C 1,8 C 4,8 km/h (1 Bft)
15.12.2017 19:35 1,9 C 1,8 C 91 % 1000,2 hPa 0,0 l/m 1,2 km/h (1 Bft) S-SW 207 0 min 0 W/m 0,6 C 1,9 C 3,2 km/h (1 Bft)
15.12.2017 19:30 1,9 C 1,8 C 91 % 1000,1 hPa 0,0 l/m 1,3 km/h (1 Bft) S-SW 207 0 min 0 W/m 0,6 C 1,9 C 3,2 km/h (1 Bft)
15.12.2017 19:25 1,9 C 1,8 C 91 % 1000,1 hPa 0,0 l/m 0,3 km/h (0 Bft) S-SW 207 0 min 0 W/m 0,6 C 1,9 C 1,6 km/h (1 Bft)
15.12.2017 19:20 1,9 C 1,8 C 91 % 1000,0 hPa 0,0 l/m 0,4 km/h (0 Bft) S-SW 207 0 min 0 W/m 0,6 C 1,9 C 3,2 km/h (1 Bft)
15.12.2017 19:15 1,9 C 1,8 C 91 % 1000,0 hPa 0,0 l/m 1,3 km/h (1 Bft) S-SW 207 0 min 0 W/m 0,6 C 1,9 C 3,2 km/h (1 Bft)
15.12.2017 19:10 1,9 C 1,8 C 91 % 1000,1 hPa 0,0 l/m 2,2 km/h (1 Bft) S-SW 207 0 min 0 W/m 0,6 C 1,9 C 4,8 km/h (1 Bft)
15.12.2017 19:05 1,9 C 1,8 C 91 % 1000,1 hPa 0,0 l/m 2,7 km/h (1 Bft) S-SW 207 0 min 0 W/m 0,6 C 1,9 C 4,8 km/h (1 Bft)
15.12.2017 19:00 1,8 C 1,8 C 91 % 1000,1 hPa 0,0 l/m 1,7 km/h (1 Bft) S-SW 207 0 min 0 W/m 0,5 C 1,8 C 4,8 km/h (1 Bft)
15.12.2017 18:55 1,8 C 1,8 C 90 % 1000,0 hPa 0,0 l/m 3,1 km/h (1 Bft) S-SW 207 0 min 0 W/m 0,3 C 1,8 C 4,8 km/h (1 Bft)
15.12.2017 18:50 1,8 C 1,8 C 90 % 1000,0 hPa 0,0 l/m 2,2 km/h (1 Bft) S-SW 207 0 min 0 W/m 0,3 C 1,8 C 4,8 km/h (1 Bft)
15.12.2017 18:45 1,9 C 1,9 C 90 % 1000,0 hPa 0,0 l/m 1,0 km/h (0 Bft) S-SW 207 0 min 0 W/m 0,4 C 1,9 C 3,2 km/h (1 Bft)
15.12.2017 18:40 1,9 C 1,9 C 89 % 1000,0 hPa 0,0 l/m 0,9 km/h (0 Bft) S-SW 207 0 min 0 W/m 0,3 C 1,9 C 3,2 km/h (1 Bft)
15.12.2017 18:35 2,1 C 2,1 C 89 % 999,9 hPa 0,0 l/m 1,2 km/h (1 Bft) S-SW 207 0 min 0 W/m 0,5 C 2,1 C 3,2 km/h (1 Bft)
15.12.2017 18:30 2,2 C 2,2 C 88 % 999,9 hPa 0,0 l/m 1,0 km/h (0 Bft) S-SW 207 0 min 0 W/m 0,4 C 2,2 C 3,2 km/h (1 Bft)
15.12.2017 18:25 2,3 C 2,3 C 88 % 999,9 hPa 0,0 l/m 1,9 km/h (1 Bft) S-SW 207 0 min 0 W/m 0,5 C 2,3 C 4,8 km/h (1 Bft)
15.12.2017 18:20 2,4 C 2,4 C 88 % 999,9 hPa 0,0 l/m 2,0 km/h (1 Bft) S-SW 207 0 min 0 W/m 0,6 C 2,4 C 4,8 km/h (1 Bft)
15.12.2017 18:15 2,6 C 2,6 C 88 % 999,8 hPa 0,0 l/m 1,5 km/h (1 Bft) S-SW 207 0 min 0 W/m 0,8 C 2,6 C 4,8 km/h (1 Bft)
15.12.2017 18:10 2,8 C 2,8 C 88 % 999,8 hPa 0,0 l/m 1,4 km/h (1 Bft) S-SW 207 0 min 0 W/m 1,0 C 2,8 C 3,2 km/h (1 Bft)
15.12.2017 18:05 2,9 C 2,9 C 87 % 999,8 hPa 0,0 l/m 0,4 km/h (0 Bft) S-SW 207 0 min 0 W/m 1,0 C 2,9 C 1,6 km/h (1 Bft)
15.12.2017 18:00 3,1 C 3,1 C 87 % 999,7 hPa 0,0 l/m 1,2 km/h (1 Bft) S-SW 207 0 min 0 W/m 1,2 C 3,1 C 3,2 km/h (1 Bft)
15.12.2017 17:55 3,2 C 3,2 C 86 % 999,7 hPa 0,0 l/m 0,2 km/h (0 Bft) S-SW 207 0 min 0 W/m 1,1 C 3,2 C 1,6 km/h (1 Bft)
15.12.2017 17:50 3,4 C 3,4 C 85 % 999,8 hPa 0,0 l/m 0,0 km/h (0 Bft) S-SW 207 0 min 0 W/m 1,1 C 3,4 C 0,0 km/h (0 Bft)
15.12.2017 17:45 3,5 C 3,5 C 85 % 999,7 hPa 0,0 l/m 0,0 km/h (0 Bft) S-SW 207 0 min 0 W/m 1,2 C 3,5 C 0,0 km/h (0 Bft)
15.12.2017 17:40 3,7 C 3,7 C 84 % 999,7 hPa 0,0 l/m 0,9 km/h (0 Bft) S-SW 207 0 min 0 W/m 1,3 C 3,7 C 1,6 km/h (1 Bft)
15.12.2017 17:35 3,8 C 3,8 C 83 % 999,8 hPa 0,0 l/m 0,0 km/h (0 Bft) S-SW 207 0 min 0 W/m 1,2 C 3,8 C 1,6 km/h (1 Bft)
15.12.2017 17:30 3,9 C 3,9 C 83 % 999,8 hPa 0,0 l/m 1,6 km/h (1 Bft) S-SW 207 0 min 0 W/m 1,3 C 3,9 C 4,8 km/h (1 Bft)
15.12.2017 17:25 4,1 C 4,1 C 82 % 999,9 hPa 0,0 l/m 0,7 km/h (0 Bft) S-SW 207 0 min 0 W/m 1,3 C 4,1 C 3,2 km/h (1 Bft)
15.12.2017 17:20 4,2 C 4,2 C 82 % 999,8 hPa 0,0 l/m 0,1 km/h (0 Bft) S-SW 207 0 min 0 W/m 1,4 C 4,2 C 1,6 km/h (1 Bft)
15.12.2017 17:15 4,3 C 4,3 C 82 % 999,8 hPa 0,0 l/m 0,3 km/h (0 Bft) S-SW 207 0 min 0 W/m 1,5 C 4,3 C 1,6 km/h (1 Bft)
15.12.2017 17:10 4,4 C 4,4 C 82 % 999,8 hPa 0,0 l/m 0,4 km/h (0 Bft) S-SW 207 0 min 0 W/m 1,6 C 4,4 C 3,2 km/h (1 Bft)
15.12.2017 17:05 4,4 C 4,4 C 82 % 999,7 hPa 0,0 l/m 1,0 km/h (0 Bft) S-SW 207 0 min 0 W/m 1,6 C 4,4 C 3,2 km/h (1 Bft)
15.12.2017 17:00 4,6 C 4,6 C 82 % 999,8 hPa 0,0 l/m 2,2 km/h (1 Bft) S-SW 207 0 min 0 W/m 1,8 C 4,6 C 4,8 km/h (1 Bft)
15.12.2017 16:55 4,6 C 4,6 C 82 % 999,7 hPa 0,0 l/m 3,4 km/h (1 Bft) S-SW 207 0 min 0 W/m 1,8 C 4,6 C 6,4 km/h (2 Bft)
15.12.2017 16:50 4,7 C 4,7 C 82 % 999,7 hPa 0,0 l/m 3,2 km/h (1 Bft) S-SW 207 0 min 0 W/m 1,9 C 4,7 C 6,4 km/h (2 Bft)
15.12.2017 16:45 4,7 C 4,7 C 82 % 999,7 hPa 0,0 l/m 3,3 km/h (1 Bft) S-SW 197 0 min 0 W/m 1,9 C 4,7 C 6,4 km/h (2 Bft)
15.12.2017 16:40 4,7 C 4,7 C 82 % 999,7 hPa 0,0 l/m 3,0 km/h (1 Bft) S-SW 197 0 min 0 W/m 1,9 C 4,7 C 4,8 km/h (1 Bft)
15.12.2017 16:35 4,8 C 4,8 C 81 % 999,7 hPa 0,0 l/m 2,8 km/h (1 Bft) S-SW 197 0 min 0 W/m 1,8 C 4,8 C 4,8 km/h (1 Bft)
15.12.2017 16:30 4,8 C 4,8 C 82 % 999,7 hPa 0,0 l/m 3,5 km/h (1 Bft) S-SW 197 0 min 0 W/m 2,0 C 4,8 C 6,4 km/h (2 Bft)
15.12.2017 16:25 4,8 C 4,8 C 81 % 999,7 hPa 0,0 l/m 4,0 km/h (1 Bft) S 178 0 min 0 W/m 1,8 C 4,8 C 8,0 km/h (2 Bft)
15.12.2017 16:20 4,8 C 4,8 C 81 % 999,7 hPa 0,0 l/m 4,6 km/h (1 Bft) S-SO 148 0 min 0 W/m 1,8 C 4,0 C 9,7 km/h (2 Bft)
15.12.2017 16:15 4,9 C 4,9 C 81 % 999,7 hPa 0,0 l/m 3,9 km/h (1 Bft) SO 143 0 min 0 W/m 1,9 C 4,9 C 8,0 km/h (2 Bft)
15.12.2017 16:10 4,9 C 4,9 C 81 % 999,7 hPa 0,0 l/m 3,7 km/h (1 Bft) S-SW 194 0 min 0 W/m 1,9 C 4,9 C 8,0 km/h (2 Bft)
15.12.2017 16:05 5,1 C 5,1 C 81 % 999,6 hPa 0,0 l/m 5,9 km/h (2 Bft) SW 227 0 min 0 W/m 2,1 C 3,9 C 9,7 km/h (2 Bft)
15.12.2017 16:00 5,2 C 5,2 C 81 % 999,5 hPa 0,0 l/m 6,3 km/h (2 Bft) S-SW 196 0 min 0 W/m 2,2 C 3,9 C 12,9 km/h (3 Bft)
15.12.2017 15:55 5,2 C 5,2 C 81 % 999,5 hPa 0,0 l/m 5,0 km/h (1 Bft) S 190 0 min 0 W/m 2,2 C 4,3 C 9,7 km/h (2 Bft)
15.12.2017 15:50 5,3 C 5,3 C 81 % 999,5 hPa 0,0 l/m 5,6 km/h (1 Bft) S-SW 192 0 min 0 W/m 2,3 C 4,2 C 12,9 km/h (3 Bft)
15.12.2017 15:45 5,3 C 5,3 C 81 % 999,4 hPa 0,0 l/m 6,0 km/h (2 Bft) S-SW 213 0 min 0 W/m 2,3 C 4,1 C 11,3 km/h (2 Bft)
15.12.2017 15:40 5,3 C 5,3 C 81 % 999,5 hPa 0,0 l/m 7,8 km/h (2 Bft) S 172 0 min 0 W/m 2,3 C 3,5 C 16,1 km/h (3 Bft)
15.12.2017 15:35 5,3 C 5,3 C 81 % 999,4 hPa 0,0 l/m 9,9 km/h (2 Bft) S-SW 201 0 min 0 W/m 2,3 C 3,0 C 19,3 km/h (3 Bft)
15.12.2017 15:30 5,3 C 5,3 C 83 % 999,3 hPa 0,0 l/m 12,7 km/h (3 Bft) S-SW 201 0 min 0 W/m 2,7 C 2,5 C 24,1 km/h (4 Bft)
15.12.2017 15:25 5,3 C 5,2 C 84 % 999,3 hPa 0,0 l/m 9,8 km/h (2 Bft) S-SW 194 0 min 0 W/m 2,8 C 3,1 C 20,9 km/h (4 Bft)
15.12.2017 15:20 5,2 C 5,1 C 83 % 999,1 hPa 0,0 l/m 10,1 km/h (2 Bft) SW 223 0 min 0 W/m 2,6 C 2,9 C 24,1 km/h (4 Bft)
15.12.2017 15:15 5,1 C 5,1 C 84 % 999,1 hPa 0,0 l/m 12,2 km/h (2 Bft) W-SW 244 0 min 0 W/m 2,6 C 2,3 C 20,9 km/h (4 Bft)
15.12.2017 15:10 5,1 C 5,1 C 85 % 999,0 hPa 0,0 l/m 9,4 km/h (2 Bft) SW 234 0 min 0 W/m 2,8 C 2,9 C 20,9 km/h (4 Bft)
15.12.2017 15:05 5,1 C 5,1 C 85 % 999,0 hPa 0,0 l/m 11,3 km/h (2 Bft) S 180 0 min 0 W/m 2,8 C 2,5 C 19,3 km/h (3 Bft)
15.12.2017 15:00 5,1 C 5,1 C 86 % 999,0 hPa 0,0 l/m 11,1 km/h (2 Bft) SW 227 0 min 0 W/m 3,0 C 2,6 C 20,9 km/h (4 Bft)
15.12.2017 14:55 5,2 C 5,2 C 86 % 998,8 hPa 0,0 l/m 10,0 km/h (2 Bft) S 174 0 min 0 W/m 3,1 C 2,9 C 22,5 km/h (4 Bft)
15.12.2017 14:50 5,2 C 5,2 C 86 % 998,8 hPa 0,0 l/m 9,4 km/h (2 Bft) S-SW 200 0 min 0 W/m 3,1 C 3,0 C 20,9 km/h (4 Bft)
15.12.2017 14:45 5,2 C 5,2 C 86 % 998,7 hPa 0,0 l/m 9,3 km/h (2 Bft) S 171 0 min 0 W/m 3,1 C 3,1 C 19,3 km/h (3 Bft)
15.12.2017 14:40 5,2 C 5,1 C 87 % 998,6 hPa 0,0 l/m 9,8 km/h (2 Bft) S 169 0 min 0 W/m 3,2 C 2,9 C 22,5 km/h (4 Bft)
15.12.2017 14:35 5,1 C 5,1 C 87 % 998,6 hPa 0,0 l/m 12,3 km/h (3 Bft) S 179 0 min 0 W/m 3,1 C 2,3 C 24,1 km/h (4 Bft)
15.12.2017 14:30 5,1 C 4,9 C 87 % 998,5 hPa 0,0 l/m 10,4 km/h (2 Bft) W 264 0 min 0 W/m 3,1 C 2,7 C 24,1 km/h (4 Bft)
15.12.2017 14:25 4,9 C 4,9 C 87 % 998,4 hPa 0,0 l/m 10,0 km/h (2 Bft) W-SW 240 0 min 0 W/m 2,9 C 2,5 C 29,0 km/h (5 Bft)
15.12.2017 14:20 4,9 C 4,9 C 87 % 998,4 hPa 0,0 l/m 12,8 km/h (3 Bft) S-SW 197 0 min 0 W/m 2,9 C 2,0 C 22,5 km/h (4 Bft)
15.12.2017 14:15 4,9 C 4,9 C 87 % 998,3 hPa 0,0 l/m 13,8 km/h (3 Bft) S-SW 194 0 min 0 W/m 2,9 C 1,8 C 30,6 km/h (5 Bft)
15.12.2017 14:10 5,1 C 5,0 C 87 % 998,4 hPa 0,0 l/m 10,7 km/h (2 Bft) S-SW 198 0 min 0 W/m 3,1 C 2,6 C 24,1 km/h (4 Bft)
15.12.2017 14:05 5,1 C 5,1 C 87 % 998,4 hPa 0,0 l/m 10,8 km/h (2 Bft) SW 221 0 min 0 W/m 3,1 C 2,6 C 38,6 km/h (5 Bft)
15.12.2017 14:00 5,2 C 5,2 C 86 % 998,4 hPa 0,0 l/m 6,7 km/h (2 Bft) S-SW 209 0 min 0 W/m 3,1 C 3,7 C 12,9 km/h (3 Bft)
15.12.2017 13:55 5,3 C 5,3 C 85 % 998,3 hPa 0,2 l/m 9,2 km/h (2 Bft) S-SW 195 0 min 0 W/m 3,0 C 3,2 C 17,7 km/h (3 Bft)
15.12.2017 13:50 5,5 C 5,5 C 83 % 998,2 hPa 0,2 l/m 14,9 km/h (3 Bft) S-SW 198 0 min 0 W/m 2,8 C 2,4 C 30,6 km/h (5 Bft)
15.12.2017 13:45 5,8 C 5,8 C 82 % 998,2 hPa 0,2 l/m 14,3 km/h (3 Bft) S-SW 200 0 min 0 W/m 3,0 C 2,8 C 27,4 km/h (4 Bft)
15.12.2017 13:40 6,1 C 6,1 C 81 % 998,0 hPa 0,0 l/m 11,1 km/h (2 Bft) S-SW 207 0 min 0 W/m 3,1 C 3,8 C 25,7 km/h (4 Bft)
15.12.2017 13:35 6,1 C 6,1 C 80 % 997,8 hPa 0,0 l/m 9,3 km/h (2 Bft) S 183 0 min 0 W/m 2,9 C 4,1 C 20,9 km/h (4 Bft)
15.12.2017 13:30 6,2 C 6,2 C 78 % 997,8 hPa 0,0 l/m 10,2 km/h (2 Bft) S 184 0 min 0 W/m 2,7 C 4,1 C 25,7 km/h (4 Bft)
15.12.2017 13:25 6,2 C 6,2 C 78 % 997,8 hPa 0,0 l/m 11,3 km/h (2 Bft) S-SW 195 0 min 0 W/m 2,7 C 3,8 C 19,3 km/h (3 Bft)
15.12.2017 13:20 6,3 C 6,3 C 78 % 997,8 hPa 0,0 l/m 11,0 km/h (2 Bft) S-SW 211 0 min 0 W/m 2,8 C 4,0 C 30,6 km/h (5 Bft)
15.12.2017 13:15 6,3 C 6,3 C 77 % 997,8 hPa 0,0 l/m 7,5 km/h (2 Bft) S 184 0 min 0 W/m 2,6 C 4,8 C 14,5 km/h (3 Bft)
15.12.2017 13:10 6,3 C 6,3 C 77 % 997,8 hPa 0,0 l/m 10,1 km/h (2 Bft) S-SO 162 0 min 0 W/m 2,6 C 4,2 C 17,7 km/h (3 Bft)
15.12.2017 13:05 6,4 C 6,4 C 77 % 997,8 hPa 0,0 l/m 9,4 km/h (2 Bft) S 170 0 min 0 W/m 2,7 C 4,5 C 16,1 km/h (3 Bft)
15.12.2017 13:00 6,4 C 6,4 C 77 % 997,8 hPa 0,0 l/m 9,7 km/h (2 Bft) S-SO 150 0 min 0 W/m 2,7 C 4,4 C 19,3 km/h (3 Bft)
15.12.2017 12:55 6,4 C 6,4 C 77 % 997,8 hPa 0,0 l/m 10,0 km/h (2 Bft) S 180 0 min 0 W/m 2,7 C 4,3 C 19,3 km/h (3 Bft)
15.12.2017 12:50 6,4 C 6,3 C 77 % 997,8 hPa 0,0 l/m 11,1 km/h (2 Bft) S-SO 161 0 min 0 W/m 2,7 C 4,1 C 24,1 km/h (4 Bft)
15.12.2017 12:45 6,3 C 6,2 C 77 % 997,8 hPa 0,0 l/m 11,2 km/h (2 Bft) S-SW 198 0 min 0 W/m 2,6 C 4,0 C 19,3 km/h (3 Bft)
15.12.2017 12:40 6,2 C 6,1 C 78 % 997,8 hPa 0,0 l/m 10,3 km/h (2 Bft) S 180 0 min 0 W/m 2,7 C 4,0 C 17,7 km/h (3 Bft)
15.12.2017 12:35 6,1 C 6,0 C 78 % 997,8 hPa 0,0 l/m 8,7 km/h (2 Bft) S 175 0 min 0 W/m 2,6 C 4,3 C 19,3 km/h (3 Bft)
15.12.2017 12:30 6,1 C 6,0 C 78 % 997,8 hPa 0,0 l/m 11,7 km/h (2 Bft) S-SO 150 0 min 0 W/m 2,6 C 3,6 C 27,4 km/h (4 Bft)
15.12.2017 12:25 6,0 C 5,9 C 79 % 997,9 hPa 0,0 l/m 9,3 km/h (2 Bft) S-SW 195 0 min 0 W/m 2,6 C 4,0 C 20,9 km/h (4 Bft)
15.12.2017 12:20 5,9 C 5,9 C 78 % 997,8 hPa 0,0 l/m 11,6 km/h (2 Bft) S-SW 200 0 min 0 W/m 2,4 C 3,4 C 22,5 km/h (4 Bft)
15.12.2017 12:15 5,9 C 5,9 C 79 % 997,8 hPa 0,0 l/m 11,5 km/h (2 Bft) S 176 0 min 0 W/m 2,5 C 3,4 C 27,4 km/h (4 Bft)
15.12.2017 12:10 5,9 C 5,8 C 80 % 997,8 hPa 0,0 l/m 10,2 km/h (2 Bft) S 188 0 min 0 W/m 2,7 C 3,7 C 20,9 km/h (4 Bft)
15.12.2017 12:05 5,8 C 5,7 C 80 % 997,8 hPa 0,0 l/m 11,7 km/h (2 Bft) S 187 0 min 0 W/m 2,6 C 3,3 C 30,6 km/h (5 Bft)
15.12.2017 12:00 5,7 C 5,6 C 81 % 997,8 hPa 0,0 l/m 10,5 km/h (2 Bft) SW 234 0 min 0 W/m 2,7 C 3,4 C 25,7 km/h (4 Bft)
15.12.2017 11:55 5,6 C 5,6 C 81 % 997,9 hPa 0,0 l/m 10,4 km/h (2 Bft) S-SO 165 0 min 0 W/m 2,6 C 3,3 C 22,5 km/h (4 Bft)
15.12.2017 11:50 5,6 C 5,5 C 82 % 997,9 hPa 0,0 l/m 10,0 km/h (2 Bft) S-SW 193 0 min 0 W/m 2,8 C 3,4 C 19,3 km/h (3 Bft)
15.12.2017 11:45 5,5 C 5,4 C 82 % 997,9 hPa 0,0 l/m 8,0 km/h (2 Bft) SO 136 0 min 0 W/m 2,7 C 3,7 C 20,9 km/h (4 Bft)
15.12.2017 11:40 5,4 C 5,3 C 82 % 998,0 hPa 0,0 l/m 9,4 km/h (2 Bft) S-SO 161 0 min 0 W/m 2,6 C 3,3 C 17,7 km/h (3 Bft)
15.12.2017 11:35 5,3 C 5,2 C 83 % 997,9 hPa 0,0 l/m 8,1 km/h (2 Bft) S-SW 195 0 min 0 W/m 2,7 C 3,5 C 14,5 km/h (3 Bft)
15.12.2017 11:30 5,2 C 5,2 C 83 % 998,0 hPa 0,0 l/m 10,7 km/h (2 Bft) S-SO 161 0 min 0 W/m 2,6 C 2,8 C 20,9 km/h (4 Bft)
15.12.2017 11:25 5,2 C 5,1 C 83 % 998,0 hPa 0,0 l/m 11,0 km/h (2 Bft) S 189 0 min 0 W/m 2,6 C 2,7 C 22,5 km/h (4 Bft)
15.12.2017 11:20 5,1 C 5,1 C 83 % 998,0 hPa 0,0 l/m 10,5 km/h (2 Bft) S-SW 205 0 min 0 W/m 2,5 C 2,7 C 19,3 km/h (3 Bft)
15.12.2017 11:15 5,1 C 4,9 C 83 % 998,0 hPa 0,0 l/m 9,0 km/h (2 Bft) S-SO 166 0 min 0 W/m 2,5 C 3,0 C 19,3 km/h (3 Bft)
15.12.2017 11:10 4,9 C 4,9 C 83 % 998,0 hPa 0,0 l/m 9,5 km/h (2 Bft) S 175 0 min 0 W/m 2,3 C 2,7 C 17,7 km/h (3 Bft)
15.12.2017 11:05 4,9 C 4,8 C 84 % 998,0 hPa 0,0 l/m 7,4 km/h (2 Bft) S 177 0 min 0 W/m 2,4 C 3,2 C 16,1 km/h (3 Bft)
15.12.2017 11:00 4,8 C 4,7 C 84 % 998,1 hPa 0,0 l/m 9,7 km/h (2 Bft) S-SW 193 0 min 0 W/m 2,3 C 2,5 C 19,3 km/h (3 Bft)
15.12.2017 10:55 4,7 C 4,6 C 84 % 998,1 hPa 0,0 l/m 8,9 km/h (2 Bft) S-SO 162 0 min 0 W/m 2,2 C 2,6 C 17,7 km/h (3 Bft)
15.12.2017 10:50 4,6 C 4,4 C 85 % 998,1 hPa 0,0 l/m 9,2 km/h (2 Bft) S-SO 160 0 min 0 W/m 2,3 C 2,4 C 17,7 km/h (3 Bft)
15.12.2017 10:45 4,4 C 4,3 C 87 % 998,0 hPa 0,0 l/m 6,3 km/h (2 Bft) SW 217 0 min 0 W/m 2,4 C 2,9 C 14,5 km/h (3 Bft)
15.12.2017 10:40 4,3 C 4,3 C 89 % 998,0 hPa 0,0 l/m 3,7 km/h (1 Bft) S-SO 156 0 min 0 W/m 2,7 C 4,3 C 9,7 km/h (2 Bft)
15.12.2017 10:35 4,3 C 4,3 C 88 % 998,0 hPa 0,0 l/m 3,6 km/h (1 Bft) S-SW 207 0 min 0 W/m 2,5 C 4,3 C 8,0 km/h (2 Bft)
15.12.2017 10:30 4,3 C 4,2 C 89 % 998,0 hPa 0,0 l/m 3,1 km/h (1 Bft) S-SO 157 0 min 0 W/m 2,7 C 4,3 C 8,0 km/h (2 Bft)
15.12.2017 10:25 4,2 C 4,2 C 88 % 998,1 hPa 0,0 l/m 3,0 km/h (1 Bft) S-SW 198 0 min 0 W/m 2,4 C 4,2 C 8,0 km/h (2 Bft)
15.12.2017 10:20 4,2 C 4,1 C 88 % 998,1 hPa 0,0 l/m 3,9 km/h (1 Bft) S-SO 165 0 min 0 W/m 2,4 C 4,2 C 6,4 km/h (2 Bft)
15.12.2017 10:15 4,1 C 4,1 C 88 % 998,2 hPa 0,2 l/m 5,8 km/h (2 Bft) S-SW 200 0 min 0 W/m 2,3 C 2,8 C 9,7 km/h (2 Bft)
15.12.2017 10:10 4,1 C 4,0 C 88 % 998,2 hPa 0,0 l/m 6,8 km/h (2 Bft) S 186 0 min 0 W/m 2,3 C 2,4 C 19,3 km/h (3 Bft)
15.12.2017 10:05 4,0 C 3,9 C 89 % 998,4 hPa 0,0 l/m 11,6 km/h (2 Bft) S 191 0 min 0 W/m 2,4 C 1,1 C 29,0 km/h (5 Bft)
15.12.2017 10:00 3,9 C 3,7 C 90 % 998,5 hPa 0,0 l/m 7,4 km/h (2 Bft) S-SW 209 0 min 0 W/m 2,4 C 2,0 C 14,5 km/h (3 Bft)
15.12.2017 09:55 3,7 C 3,6 C 91 % 998,5 hPa 0,0 l/m 6,5 km/h (2 Bft) S-SO 155 0 min 0 W/m 2,4 C 2,1 C 16,1 km/h (3 Bft)
15.12.2017 09:50 3,6 C 3,4 C 91 % 998,5 hPa 0,0 l/m 5,3 km/h (1 Bft) S-SO 158 0 min 0 W/m 2,3 C 2,4 C 11,3 km/h (2 Bft)
15.12.2017 09:45 3,4 C 3,3 C 92 % 998,4 hPa 0,0 l/m 6,4 km/h (2 Bft) S 184 0 min 0 W/m 2,2 C 1,7 C 14,5 km/h (3 Bft)
15.12.2017 09:40 3,3 C 3,2 C 93 % 998,3 hPa 0,0 l/m 6,0 km/h (2 Bft) S-SW 196 0 min 0 W/m 2,3 C 1,8 C 12,9 km/h (3 Bft)
15.12.2017 09:35 3,2 C 3,1 C 93 % 998,3 hPa 0,0 l/m 4,7 km/h (1 Bft) S 191 0 min 0 W/m 2,2 C 2,2 C 9,7 km/h (2 Bft)
15.12.2017 09:30 3,1 C 2,9 C 94 % 998,2 hPa 0,0 l/m 4,9 km/h (1 Bft) S-SO 163 0 min 0 W/m 2,2 C 2,0 C 11,3 km/h (2 Bft)
15.12.2017 09:25 2,9 C 2,8 C 94 % 998,2 hPa 0,0 l/m 4,1 km/h (1 Bft) S-SO 150 0 min 0 W/m 2,0 C 2,9 C 9,7 km/h (2 Bft)
15.12.2017 09:20 2,8 C 2,6 C 94 % 998,1 hPa 0,0 l/m 4,3 km/h (1 Bft) S-SO 148 0 min 0 W/m 1,9 C 2,8 C 9,7 km/h (2 Bft)
15.12.2017 09:15 2,6 C 2,4 C 94 % 998,2 hPa 0,0 l/m 3,2 km/h (1 Bft) S 175 0 min 0 W/m 1,7 C 2,6 C 6,4 km/h (2 Bft)
15.12.2017 09:10 2,4 C 2,3 C 94 % 998,0 hPa 0,0 l/m 0,8 km/h (0 Bft) S-SW 192 0 min 0 W/m 1,5 C 2,4 C 3,2 km/h (1 Bft)
15.12.2017 09:05 2,3 C 2,2 C 94 % 998,1 hPa 0,0 l/m 0,4 km/h (0 Bft) S-SW 192 0 min 0 W/m 1,4 C 2,3 C 3,2 km/h (1 Bft)
15.12.2017 09:00 2,2 C 2,2 C 94 % 998,1 hPa 0,0 l/m 0,1 km/h (0 Bft) S-SW 192 0 min 0 W/m 1,3 C 2,2 C 1,6 km/h (1 Bft)
15.12.2017 08:55 2,2 C 2,2 C 94 % 998,2 hPa 0,0 l/m 0,1 km/h (0 Bft) S-SW 192 0 min 0 W/m 1,3 C 2,2 C 1,6 km/h (1 Bft)
15.12.2017 08:50 2,2 C 2,2 C 94 % 998,3 hPa 0,0 l/m 0,0 km/h (0 Bft) S-SW 192 0 min 0 W/m 1,3 C 2,2 C 0,0 km/h (0 Bft)
15.12.2017 08:45 2,3 C 2,3 C 94 % 998,4 hPa 0,0 l/m 0,0 km/h (0 Bft) S-SW 192 0 min 0 W/m 1,4 C 2,3 C 1,6 km/h (1 Bft)
15.12.2017 08:40 2,3 C 2,2 C 94 % 998,4 hPa 0,0 l/m 0,0 km/h (0 Bft) S-SW 192 0 min 0 W/m 1,4 C 2,3 C 1,6 km/h (1 Bft)
15.12.2017 08:35 2,2 C 2,2 C 94 % 998,4 hPa 0,0 l/m 0,4 km/h (0 Bft) S-SW 192 0 min 0 W/m 1,3 C 2,2 C 1,6 km/h (1 Bft)
15.12.2017 08:30 2,2 C 2,1 C 94 % 998,4 hPa 0,0 l/m 0,6 km/h (0 Bft) S-SW 192 0 min 0 W/m 1,3 C 2,2 C 3,2 km/h (1 Bft)
15.12.2017 08:25 2,2 C 2,1 C 94 % 998,4 hPa 0,0 l/m 0,1 km/h (0 Bft) S-SW 192 0 min 0 W/m 1,3 C 2,2 C 1,6 km/h (1 Bft)
15.12.2017 08:20 2,2 C 2,2 C 93 % 998,5 hPa 0,0 l/m 0,5 km/h (0 Bft) S-SW 192 0 min 0 W/m 1,2 C 2,2 C 3,2 km/h (1 Bft)
15.12.2017 08:15 2,2 C 2,2 C 93 % 998,5 hPa 0,0 l/m 0,5 km/h (0 Bft) S-SW 192 0 min 0 W/m 1,2 C 2,2 C 3,2 km/h (1 Bft)
15.12.2017 08:10 2,2 C 2,2 C 93 % 998,5 hPa 0,0 l/m 0,2 km/h (0 Bft) S-SW 192 0 min 0 W/m 1,2 C 2,2 C 1,6 km/h (1 Bft)
15.12.2017 08:05 2,2 C 2,1 C 93 % 998,4 hPa 0,0 l/m 1,4 km/h (1 Bft) S-SW 192 0 min 0 W/m 1,2 C 2,2 C 3,2 km/h (1 Bft)
15.12.2017 08:00 2,1 C 2,1 C 93 % 998,4 hPa 0,0 l/m 1,2 km/h (1 Bft) S-SW 192 0 min 0 W/m 1,1 C 2,1 C 3,2 km/h (1 Bft)
15.12.2017 07:55 2,1 C 2,1 C 93 % 998,3 hPa 0,0 l/m 0,7 km/h (0 Bft) S-SW 192 0 min 0 W/m 1,1 C 2,1 C 4,8 km/h (1 Bft)
15.12.2017 07:50 2,1 C 2,1 C 93 % 998,4 hPa 0,0 l/m 2,7 km/h (1 Bft) S-SW 192 0 min 0 W/m 1,1 C 2,1 C 4,8 km/h (1 Bft)
15.12.2017 07:45 2,2 C 2,2 C 93 % 998,3 hPa 0,0 l/m 3,2 km/h (1 Bft) S-SW 192 0 min 0 W/m 1,2 C 2,2 C 8,0 km/h (2 Bft)
15.12.2017 07:40 2,3 C 2,2 C 93 % 998,3 hPa 0,0 l/m 4,3 km/h (1 Bft) S 180 0 min 0 W/m 1,3 C 2,3 C 8,0 km/h (2 Bft)
15.12.2017 07:35 2,3 C 2,3 C 92 % 998,2 hPa 0,0 l/m 5,0 km/h (1 Bft) S-SW 202 0 min 0 W/m 1,1 C 1,0 C 8,0 km/h (2 Bft)
15.12.2017 07:30 2,4 C 2,4 C 93 % 998,2 hPa 0,0 l/m 5,4 km/h (1 Bft) S-SW 203 0 min 0 W/m 1,4 C 1,0 C 9,7 km/h (2 Bft)
15.12.2017 07:25 2,4 C 2,4 C 93 % 998,2 hPa 0,0 l/m 3,7 km/h (1 Bft) S 174 0 min 0 W/m 1,4 C 2,4 C 8,0 km/h (2 Bft)
15.12.2017 07:20 2,6 C 2,6 C 93 % 998,2 hPa 0,0 l/m 5,5 km/h (1 Bft) S 178 0 min 0 W/m 1,6 C 1,2 C 11,3 km/h (2 Bft)
15.12.2017 07:15 2,6 C 2,6 C 93 % 998,1 hPa 0,0 l/m 5,3 km/h (1 Bft) S 178 0 min 0 W/m 1,6 C 1,2 C 9,7 km/h (2 Bft)
15.12.2017 07:10 2,6 C 2,6 C 93 % 998,1 hPa 0,0 l/m 4,7 km/h (1 Bft) S-SW 197 0 min 0 W/m 1,6 C 1,5 C 12,9 km/h (3 Bft)
15.12.2017 07:05 2,6 C 2,5 C 93 % 998,2 hPa 0,0 l/m 5,8 km/h (2 Bft) S-SW 204 0 min 0 W/m 1,6 C 1,0 C 9,7 km/h (2 Bft)
15.12.2017 07:00 2,5 C 2,4 C 93 % 998,0 hPa 0,0 l/m 3,9 km/h (1 Bft) S 186 0 min 0 W/m 1,5 C 2,5 C 8,0 km/h (2 Bft)
15.12.2017 06:55 2,4 C 2,3 C 93 % 997,9 hPa 0,0 l/m 6,1 km/h (2 Bft) S 181 0 min 0 W/m 1,4 C 0,7 C 12,9 km/h (3 Bft)
15.12.2017 06:50 2,3 C 2,0 C 93 % 997,8 hPa 0,0 l/m 6,6 km/h (2 Bft) S-SW 213 0 min 0 W/m 1,3 C 0,4 C 12,9 km/h (3 Bft)
15.12.2017 06:45 2,0 C 1,8 C 94 % 997,8 hPa 0,0 l/m 4,2 km/h (1 Bft) SW 230 0 min 0 W/m 1,1 C 2,0 C 9,7 km/h (2 Bft)
15.12.2017 06:40 1,8 C 1,7 C 93 % 997,6 hPa 0,0 l/m 4,2 km/h (1 Bft) SO 132 0 min 0 W/m 0,8 C 1,8 C 11,3 km/h (2 Bft)
15.12.2017 06:35 1,7 C 1,7 C 93 % 997,6 hPa 0,0 l/m 1,7 km/h (1 Bft) S-SW 204 0 min 0 W/m 0,7 C 1,7 C 6,4 km/h (2 Bft)
15.12.2017 06:30 1,7 C 1,7 C 93 % 997,5 hPa 0,0 l/m 1,4 km/h (1 Bft) S-SW 198 0 min 0 W/m 0,7 C 1,7 C 6,4 km/h (2 Bft)
15.12.2017 06:25 1,8 C 1,8 C 93 % 997,5 hPa 0,0 l/m 1,4 km/h (1 Bft) S-SW 198 0 min 0 W/m 0,8 C 1,8 C 3,2 km/h (1 Bft)
15.12.2017 06:20 1,8 C 1,8 C 92 % 997,3 hPa 0,0 l/m 2,0 km/h (1 Bft) S-SW 198 0 min 0 W/m 0,6 C 1,8 C 4,8 km/h (1 Bft)
15.12.2017 06:15 1,9 C 1,9 C 92 % 997,4 hPa 0,0 l/m 1,4 km/h (1 Bft) S-SW 198 0 min 0 W/m 0,7 C 1,9 C 4,8 km/h (1 Bft)
15.12.2017 06:10 2,0 C 2,0 C 92 % 997,2 hPa 0,0 l/m 2,6 km/h (1 Bft) S-SW 198 0 min 0 W/m 0,8 C 2,0 C 6,4 km/h (2 Bft)
15.12.2017 06:05 2,1 C 2,1 C 92 % 997,2 hPa 0,0 l/m 3,1 km/h (1 Bft) S-SW 199 0 min 0 W/m 0,9 C 2,1 C 6,4 km/h (2 Bft)
15.12.2017 06:00 2,2 C 2,2 C 92 % 997,3 hPa 0,0 l/m 3,6 km/h (1 Bft) S-SW 196 0 min 0 W/m 1,0 C 2,2 C 8,0 km/h (2 Bft)
15.12.2017 05:55 2,3 C 2,3 C 92 % 997,3 hPa 0,0 l/m 4,7 km/h (1 Bft) S 190 0 min 0 W/m 1,1 C 1,2 C 9,7 km/h (2 Bft)
15.12.2017 05:50 2,3 C 2,3 C 92 % 997,3 hPa 0,0 l/m 3,3 km/h (1 Bft) SW 223 0 min 0 W/m 1,1 C 2,3 C 6,4 km/h (2 Bft)
15.12.2017 05:45 2,4 C 2,4 C 92 % 997,2 hPa 0,0 l/m 3,5 km/h (1 Bft) S 185 0 min 0 W/m 1,2 C 2,4 C 8,0 km/h (2 Bft)
15.12.2017 05:40 2,5 C 2,5 C 92 % 997,2 hPa 0,0 l/m 4,1 km/h (1 Bft) S 180 0 min 0 W/m 1,3 C 2,5 C 9,7 km/h (2 Bft)
15.12.2017 05:35 2,5 C 2,5 C 92 % 997,2 hPa 0,0 l/m 5,0 km/h (1 Bft) SW 218 0 min 0 W/m 1,3 C 1,2 C 11,3 km/h (2 Bft)
15.12.2017 05:30 2,6 C 2,6 C 92 % 997,1 hPa 0,0 l/m 7,1 km/h (2 Bft) W-SW 257 0 min 0 W/m 1,4 C 0,6 C 16,1 km/h (3 Bft)
15.12.2017 05:25 2,6 C 2,6 C 92 % 996,9 hPa 0,0 l/m 8,5 km/h (2 Bft) W 263 0 min 0 W/m 1,4 C 0,2 C 16,1 km/h (3 Bft)
15.12.2017 05:20 2,6 C 2,6 C 92 % 996,8 hPa 0,0 l/m 9,4 km/h (2 Bft) S-SW 196 0 min 0 W/m 1,4 C -0,1 C 19,3 km/h (3 Bft)
15.12.2017 05:15 2,7 C 2,6 C 92 % 996,6 hPa 0,0 l/m 8,5 km/h (2 Bft) SW 233 0 min 0 W/m 1,5 C 0,3 C 14,5 km/h (3 Bft)
15.12.2017 05:10 2,7 C 2,7 C 92 % 996,6 hPa 0,0 l/m 9,2 km/h (2 Bft) S 181 0 min 0 W/m 1,5 C 0,1 C 20,9 km/h (4 Bft)
15.12.2017 05:05 2,8 C 2,8 C 92 % 996,6 hPa 0,0 l/m 8,8 km/h (2 Bft) SW 234 0 min 0 W/m 1,6 C 0,3 C 17,7 km/h (3 Bft)
15.12.2017 05:00 2,8 C 2,8 C 92 % 996,6 hPa 0,0 l/m 7,7 km/h (2 Bft) S 190 0 min 0 W/m 1,6 C 0,6 C 16,1 km/h (3 Bft)
15.12.2017 04:55 2,9 C 2,9 C 92 % 996,6 hPa 0,0 l/m 6,7 km/h (2 Bft) SW 225 0 min 0 W/m 1,7 C 1,1 C 16,1 km/h (3 Bft)
15.12.2017 04:50 2,9 C 2,9 C 92 % 996,4 hPa 0,0 l/m 8,7 km/h (2 Bft) S-SW 204 0 min 0 W/m 1,7 C 0,5 C 20,9 km/h (4 Bft)
15.12.2017 04:45 2,9 C 2,9 C 92 % 996,3 hPa 0,0 l/m 7,1 km/h (2 Bft) S-SW 211 0 min 0 W/m 1,7 C 0,9 C 16,1 km/h (3 Bft)
15.12.2017 04:40 3,0 C 3,0 C 92 % 996,1 hPa 0,0 l/m 7,9 km/h (2 Bft) S-SW 200 0 min 0 W/m 1,8 C 0,8 C 17,7 km/h (3 Bft)
15.12.2017 04:35 3,0 C 3,0 C 92 % 996,1 hPa 0,0 l/m 8,5 km/h (2 Bft) S 185 0 min 0 W/m 1,8 C 0,6 C 19,3 km/h (3 Bft)
15.12.2017 04:30 3,1 C 3,1 C 92 % 995,9 hPa 0,0 l/m 7,9 km/h (2 Bft) S-SW 202 0 min 0 W/m 1,9 C 0,9 C 16,1 km/h (3 Bft)
15.12.2017 04:25 3,1 C 3,1 C 92 % 995,8 hPa 0,0 l/m 10,4 km/h (2 Bft) S-SW 198 0 min 0 W/m 1,9 C 0,3 C 19,3 km/h (3 Bft)
15.12.2017 04:20 3,2 C 3,2 C 92 % 995,7 hPa 0,0 l/m 7,8 km/h (2 Bft) S 184 0 min 0 W/m 2,0 C 1,1 C 16,1 km/h (3 Bft)
15.12.2017 04:15 3,2 C 3,2 C 92 % 995,6 hPa 0,0 l/m 6,7 km/h (2 Bft) S 185 0 min 0 W/m 2,0 C 1,4 C 14,5 km/h (3 Bft)
15.12.2017 04:10 3,3 C 3,2 C 92 % 995,4 hPa 0,0 l/m 5,8 km/h (2 Bft) S 185 0 min 0 W/m 2,1 C 1,8 C 9,7 km/h (2 Bft)
15.12.2017 04:05 3,3 C 3,3 C 91 % 995,3 hPa 0,0 l/m 7,0 km/h (2 Bft) S 190 0 min 0 W/m 2,0 C 1,4 C 12,9 km/h (3 Bft)
15.12.2017 04:00 3,4 C 3,4 C 91 % 995,2 hPa 0,0 l/m 6,5 km/h (2 Bft) SW 217 0 min 0 W/m 2,1 C 1,7 C 12,9 km/h (3 Bft)
15.12.2017 03:55 3,4 C 3,4 C 92 % 995,2 hPa 0,2 l/m 5,5 km/h (1 Bft) S 186 0 min 0 W/m 2,2 C 2,1 C 17,7 km/h (3 Bft)
15.12.2017 03:50 3,5 C 3,5 C 92 % 995,1 hPa 0,2 l/m 5,3 km/h (1 Bft) S 189 0 min 0 W/m 2,3 C 2,3 C 17,7 km/h (3 Bft)
15.12.2017 03:45 3,6 C 3,5 C 91 % 995,0 hPa 0,0 l/m 3,0 km/h (1 Bft) S-SW 197 0 min 0 W/m 2,3 C 3,6 C 8,0 km/h (2 Bft)
15.12.2017 03:40 3,6 C 3,6 C 91 % 994,9 hPa 0,0 l/m 3,5 km/h (1 Bft) W-SW 250 0 min 0 W/m 2,3 C 3,6 C 14,5 km/h (3 Bft)
15.12.2017 03:35 3,7 C 3,7 C 90 % 994,8 hPa 0,0 l/m 3,0 km/h (1 Bft) W-SW 258 0 min 0 W/m 2,2 C 3,7 C 12,9 km/h (3 Bft)
15.12.2017 03:30 3,8 C 3,8 C 90 % 994,9 hPa 0,2 l/m 4,8 km/h (1 Bft) W-NW 291 0 min 0 W/m 2,3 C 2,8 C 14,5 km/h (3 Bft)
15.12.2017 03:25 4,1 C 4,1 C 90 % 994,9 hPa 0,2 l/m 6,0 km/h (2 Bft) W 279 0 min 0 W/m 2,6 C 2,7 C 19,3 km/h (3 Bft)
15.12.2017 03:20 4,2 C 4,2 C 90 % 995,0 hPa 0,2 l/m 10,0 km/h (2 Bft) S-SW 200 0 min 0 W/m 2,7 C 1,7 C 41,8 km/h (6 Bft)
15.12.2017 03:15 4,4 C 4,4 C 91 % 994,8 hPa 0,4 l/m 11,3 km/h (2 Bft) S-SW 207 0 min 0 W/m 3,1 C 1,7 C 29,0 km/h (5 Bft)
15.12.2017 03:10 4,6 C 4,6 C 91 % 994,5 hPa 0,0 l/m 18,8 km/h (3 Bft) W 263 0 min 0 W/m 3,3 C 0,7 C 41,8 km/h (6 Bft)
15.12.2017 03:05 4,7 C 4,7 C 92 % 993,9 hPa 0,2 l/m 13,5 km/h (3 Bft) SW 234 0 min 0 W/m 3,5 C 1,6 C 30,6 km/h (5 Bft)
15.12.2017 03:00 4,7 C 4,7 C 92 % 993,5 hPa 0,0 l/m 10,7 km/h (2 Bft) S 182 0 min 0 W/m 3,5 C 2,2 C 20,9 km/h (4 Bft)
15.12.2017 02:55 4,7 C 4,7 C 91 % 993,4 hPa 0,2 l/m 8,6 km/h (2 Bft) S 186 0 min 0 W/m 3,4 C 2,6 C 14,5 km/h (3 Bft)
15.12.2017 02:50 4,8 C 4,8 C 91 % 993,2 hPa 0,0 l/m 6,7 km/h (2 Bft) S-SW 192 0 min 0 W/m 3,5 C 3,3 C 9,7 km/h (2 Bft)
15.12.2017 02:45 4,8 C 4,8 C 91 % 993,1 hPa 0,0 l/m 6,1 km/h (2 Bft) S 175 0 min 0 W/m 3,5 C 3,5 C 9,7 km/h (2 Bft)
15.12.2017 02:40 4,8 C 4,8 C 91 % 993,1 hPa 0,2 l/m 6,9 km/h (2 Bft) S 178 0 min 0 W/m 3,5 C 3,2 C 16,1 km/h (3 Bft)
15.12.2017 02:35 4,8 C 4,8 C 91 % 993,2 hPa 0,0 l/m 8,1 km/h (2 Bft) S-SW 200 0 min 0 W/m 3,5 C 2,9 C 14,5 km/h (3 Bft)
15.12.2017 02:30 4,8 C 4,8 C 91 % 993,0 hPa 0,2 l/m 8,1 km/h (2 Bft) S-SW 199 0 min 0 W/m 3,5 C 2,9 C 19,3 km/h (3 Bft)
15.12.2017 02:25 4,8 C 4,8 C 91 % 992,8 hPa 0,0 l/m 7,9 km/h (2 Bft) S 173 0 min 0 W/m 3,5 C 2,9 C 14,5 km/h (3 Bft)
15.12.2017 02:20 4,8 C 4,8 C 91 % 992,6 hPa 0,2 l/m 7,9 km/h (2 Bft) S 171 0 min 0 W/m 3,5 C 2,9 C 14,5 km/h (3 Bft)
15.12.2017 02:15 4,8 C 4,8 C 91 % 992,6 hPa 0,0 l/m 7,1 km/h (2 Bft) S 189 0 min 0 W/m 3,5 C 3,1 C 14,5 km/h (3 Bft)
15.12.2017 02:10 4,8 C 4,8 C 91 % 992,7 hPa 0,0 l/m 6,8 km/h (2 Bft) SO 127 0 min 0 W/m 3,5 C 3,2 C 16,1 km/h (3 Bft)
15.12.2017 02:05 4,8 C 4,8 C 91 % 992,5 hPa 0,2 l/m 6,5 km/h (2 Bft) S-SO 152 0 min 0 W/m 3,5 C 3,3 C 12,9 km/h (3 Bft)
15.12.2017 02:00 4,9 C 4,9 C 91 % 992,7 hPa 0,0 l/m 6,0 km/h (2 Bft) S 190 0 min 0 W/m 3,6 C 3,6 C 12,9 km/h (3 Bft)
15.12.2017 01:55 4,9 C 4,9 C 90 % 992,6 hPa 0,0 l/m 6,2 km/h (2 Bft) S 174 0 min 0 W/m 3,4 C 3,5 C 14,5 km/h (3 Bft)
15.12.2017 01:50 4,9 C 4,9 C 90 % 992,6 hPa 0,2 l/m 6,6 km/h (2 Bft) S-SO 165 0 min 0 W/m 3,4 C 3,4 C 12,9 km/h (3 Bft)
15.12.2017 01:45 5,0 C 4,9 C 90 % 992,6 hPa 0,2 l/m 8,3 km/h (2 Bft) S 188 0 min 0 W/m 3,5 C 3,1 C 16,1 km/h (3 Bft)
15.12.2017 01:40 5,0 C 5,0 C 89 % 992,5 hPa 0,2 l/m 8,6 km/h (2 Bft) S-SO 154 0 min 0 W/m 3,3 C 3,0 C 14,5 km/h (3 Bft)
15.12.2017 01:35 5,1 C 5,0 C 89 % 992,7 hPa 0,0 l/m 8,7 km/h (2 Bft) S-SW 196 0 min 0 W/m 3,4 C 3,1 C 24,1 km/h (4 Bft)
15.12.2017 01:30 5,1 C 5,1 C 88 % 992,9 hPa 0,0 l/m 9,2 km/h (2 Bft) S-SO 148 0 min 0 W/m 3,3 C 3,0 C 22,5 km/h (4 Bft)
15.12.2017 01:25 5,1 C 5,1 C 88 % 992,7 hPa 0,0 l/m 8,4 km/h (2 Bft) S-SO 159 0 min 0 W/m 3,3 C 3,1 C 24,1 km/h (4 Bft)
15.12.2017 01:20 5,1 C 5,1 C 88 % 992,8 hPa 0,0 l/m 8,0 km/h (2 Bft) S-SO 155 0 min 0 W/m 3,3 C 3,3 C 16,1 km/h (3 Bft)
15.12.2017 01:15 5,1 C 5,1 C 88 % 993,0 hPa 0,0 l/m 8,5 km/h (2 Bft) S-SW 205 0 min 0 W/m 3,3 C 3,1 C 16,1 km/h (3 Bft)
15.12.2017 01:10 5,1 C 5,1 C 88 % 993,1 hPa 0,0 l/m 7,8 km/h (2 Bft) S-SW 205 0 min 0 W/m 3,3 C 3,3 C 14,5 km/h (3 Bft)
15.12.2017 01:05 5,1 C 5,0 C 88 % 993,1 hPa 0,0 l/m 7,8 km/h (2 Bft) S 178 0 min 0 W/m 3,3 C 3,3 C 16,1 km/h (3 Bft)
15.12.2017 01:00 5,0 C 5,0 C 88 % 992,9 hPa 0,0 l/m 8,1 km/h (2 Bft) SO 126 0 min 0 W/m 3,2 C 3,1 C 22,5 km/h (4 Bft)
15.12.2017 00:55 5,0 C 5,0 C 88 % 993,1 hPa 0,0 l/m 6,6 km/h (2 Bft) S-SO 159 0 min 0 W/m 3,2 C 3,5 C 16,1 km/h (3 Bft)
15.12.2017 00:50 5,1 C 5,0 C 88 % 993,3 hPa 0,0 l/m 6,2 km/h (2 Bft) S 173 0 min 0 W/m 3,3 C 3,8 C 11,3 km/h (2 Bft)
15.12.2017 00:45 5,1 C 5,1 C 89 % 993,5 hPa 0,0 l/m 6,2 km/h (2 Bft) SO 142 0 min 0 W/m 3,4 C 3,8 C 19,3 km/h (3 Bft)
15.12.2017 00:40 5,1 C 5,1 C 88 % 993,4 hPa 0,0 l/m 3,8 km/h (1 Bft) S 183 0 min 0 W/m 3,3 C 5,1 C 11,3 km/h (2 Bft)
15.12.2017 00:35 5,1 C 5,1 C 88 % 993,6 hPa 0,0 l/m 3,3 km/h (1 Bft) S-SO 157 0 min 0 W/m 3,3 C 5,1 C 8,0 km/h (2 Bft)
15.12.2017 00:30 5,1 C 5,1 C 88 % 993,9 hPa 0,0 l/m 4,5 km/h (1 Bft) S-SO 152 0 min 0 W/m 3,3 C 5,1 C 9,7 km/h (2 Bft)
15.12.2017 00:25 5,1 C 5,1 C 89 % 994,0 hPa 0,0 l/m 6,0 km/h (2 Bft) S-SO 154 0 min 0 W/m 3,4 C 3,8 C 12,9 km/h (3 Bft)
15.12.2017 00:20 5,1 C 5,1 C 88 % 994,0 hPa 0,0 l/m 6,9 km/h (2 Bft) S 171 0 min 0 W/m 3,3 C 3,6 C 16,1 km/h (3 Bft)
15.12.2017 00:15 5,1 C 5,1 C 88 % 994,0 hPa 0,0 l/m 5,4 km/h (1 Bft) S-SO 149 0 min 0 W/m 3,3 C 4,0 C 12,9 km/h (3 Bft)
15.12.2017 00:10 5,1 C 5,1 C 88 % 994,0 hPa 0,0 l/m 8,1 km/h (2 Bft) S-SO 165 0 min 0 W/m 3,3 C 3,2 C 16,1 km/h (3 Bft)
15.12.2017 00:05 5,1 C 5,1 C 89 % 993,9 hPa 0,0 l/m 5,6 km/h (1 Bft) S 189 0 min 0 W/m 3,4 C 4,0 C 12,9 km/h (3 Bft)
15.12.2017 00:00 5,1 C 5,1 C 89 % 994,0 hPa 0,0 l/m 3,0 km/h (1 Bft) S-SO 163 0 min 0 W/m 3,4 C 5,1 C 8,0 km/h (2 Bft)
_ Min-Zeit 20:20 20:20 12:45 01:40 - 08:40 - - - - 20:20 05:20 08:50
Minimum _ 1,4 C 1,4 C 77 % 992,5 hPa - 0,0 km/h (0 Bft) - - - - 0,2 C -0,1 C 0,0 km/h (0 Bft)
_ Max-Zeit 12:50 12:55 06:45 20:15 03:15 03:10 - - 00:00 00:00 02:00 00:00 03:10
Maximum _ 6,4 C 6,4 C 94 % 1000,6 hPa 0,4 l/m 18,8 km/h
W (3 Bft)
- - 0 min 0 W/m 3,6 C 5,1 C 41,8 km/h
SW (6 Bft)
Durchschnitt _ 3,9 C 3,9 C 88 % 997,5 hPa #4,0 l/m 5,8 km/h (2 Bft) S-SW - #0 min. 0 W/m 2,1 C 2,7 C 12,8 km/h (3 Bft)